Tracking 30510 objects as of 22-May-2025
HD Live streaming from Space Station
objects crossing your sky now

STARLINK-1541

Track STARLINK-1541 now!
10-day predictions
STARLINK-1541 is classified as:


NORAD ID: 46052
Int'l Code: 2020-055AB
Perigee: 553.5 km
Apogee: 555.2 km
Inclination: 53.1 °
Period: 95.6 minutes
Semi major axis: 6925 km
RCS: Unknown
Launch date: August 7, 2020
Source: United States (US)
Launch site: AIR FORCE EASTERN TEST RANGE (AFETR)
Your satellite tracking list
Your tracking list is empty




NASA's NSSDC Master Catalog

Two Line Element Set (TLE):
1 46052U 20055AB  25141.89190770  .00003017  00000-0  22134-3 0  9999
2 46052  53.0553 346.5487 0001230  93.4333 266.6796 15.06398143264530
Source of the keplerian elements: AFSPC